Location: Prague
(50.0830°N, 14.4670°E)
Time: 07:45:18
(UTC+02:00)

AO-85 - Visible Passes

Search period start: 08 June 2023 00:00
Search period end: 18 June 2023 00:00
Orbit: 516 x 753 km, 64.8° (Epoch: 04 January)

Date Brightness Start Highest point End Pass type
(mag) Time Alt. Az. Time Alt. Az. Time Alt. Az.
08 Jun ? 22:21:16 10° NW 22:25:12 58° SW 22:28:53 13° SSE visible
09 Jun ? 22:42:41 10° WNW 22:46:08 28° WSW 22:49:29 11° S visible
10 Jun ? 23:04:51 10° W 23:06:54 14° WSW 23:09:01 10° SW visible
12 Jun ? 22:06:01 10° WNW 22:09:12 23° WSW 22:12:31 10° S visible
13 Jun ? 22:28:54 10° W 22:29:55 11° WSW 22:30:56 10° SW visible
